COSMOS 2251 DEB, 33836

Orbit data source: Space-Track

COSMOS 2251 DEB, 33836 is space debris in LEO originally from a launch on Wed, 16 Jun 1993 UTC launched from the Plesetsk Missile And Space Complex (PKMTR). The debris from Iridium 33, an American commercial communications satellite, has been tracked extensively since its accidental collision with the defunct Russian satellite Cosmos 2251 in 2009. This event, occurring at high speed in low Earth orbit (LEO), generated thousands of pieces of space debris, significantly increasing the risk of further collisions. The Iridium 33 debris cloud has impacted space traffic management and orbital debris mitigation strategies, making it a subject of ongoing study in space situational awareness.

Loading next visibility...
Identifier
33836, 1993-036CD
Orbit
LEO
Country
Flag of CISCIS
Related business
Manufacturer
Unknown
Mission
Spacecraft
Bus & Motor
Unknown
Mass
Unknown
Launch date (UTC)
1993-06-16 (33 years ago)
Launch vehicle
Unknown
Launch site
Plesetsk Missile And Space Complex (PKMTR)
Object type
Payload
Rocket body
Debris
Shape & HBR
Unknown shape, 0.2 m
Radar Cross Section
Small (<0.1 m²)

Expand to show TLE details & history
Last TLE update: 18 hours ago

TLE from 18 hours ago
0 COSMOS 2251 DEB
1 33836U 93036CD  26145.41997007  .00008300  00000-0  10274-2 0  9996
2 33836  73.9958 295.1115 0024210 102.5192 289.1362 14.82662035665127
Epoch: 2026-05-25T10:04Z
TLE epoch observation values (Epoch: 2026-05-25T10:04:45.414Z)
Latitude
30.10731°
Longitude
-89.56458°
Altitude
618.911 km
Speed
7.555 km/s
True Right ascension
20h 18m 31s
True Declination
29° 57' 19"
Sunlit
Object was in daylight at epoch
Visualization orbit readout
Latitude
Unknown
Longitude
Unknown
Altitude
Unknown
Speed
Unknown
Apparent Right ascension
Unknown
Apparent Declination
Unknown
Sunlit
N/A
Visualization observer readout
Local Sidereal Time
13:02:08
Azimuth
Unknown
Elevation
Unknown
Doppler factor
Unknown
Orbital elements
Apogee altitude
635.449 km
Perigee altitude
601.571 km
Semi-major axis
6,996.647 km
Eccentricity
0.00242
Inclination
73.9958°
RAAN
295.1115°
Arg. of periapsis
102.5192°
True anomaly
288.87384°
Mean anomaly
289.1362°
Eccentric anomaly
289.00505°
Mean motion
3.70858 °/min
Orbital period
97.07 mins
BSTAR
0.0010274
Loading maneuver chart data...
Computing Atmospheric mass density...
Loading historical data...
Loading historical data...
Loading historical data...
Loading historical data...
Loading historical data...
Loading historical data...
Loading historical data...

Documentation

Showing up to 5 results
|